sat.trackr.live / text

‹ back to catalog

STARLINK-33650

NORAD 63321 · 2025-057Q

PAYLOAD ACTIVE UNKNOWN

§ Identity

Operator
Country
US
Launch date
2025-03-18
Launch site
AFETR
Launch vehicle
Mass (kg)
RCS (m²)

Purposes: comms

External: N2YO · Heavens-Above · Gunter

§ Orbital elements

Epoch: 2026-05-24T21:19:38.894304Z

Period
94.27 min
Inclination
43.0012°
Eccentricity
0.0001681
Mean motion
15.27589124 rev/d
Perigee alt
481.9 km
Apogee alt
484.2 km
Semi-major
6,861.2 km
B*
3.2061e-4
RAAN
320.2978°
Arg perigee
263.1679°
Mean anomaly
96.8981°
Rev number
6,739

§ Raw data

STARLINK-336501 63321U 25057Q   26144.88864461  .00008573  00000+0  32061-3 0  99932 63321  43.0012 320.2978 0001681 263.1679  96.8981 15.27589124 67398

JSON: /api/v1/satellites/63321 · /tle

For live sub-satellite position, see the globe view (requires WebGL).

§ Visibility from observer

Set your observer location to see the next 7 days of passes ≥ 10°. The values pass through the URL so the page stays shareable.

No JS? Fill the form by hand. The geolocation button needs JavaScript.